Wind_Speed
17 21 22 25 28 28 23 18 22 30 33 35 24 42 49 52 58 34 32 29 29 25 38 36 33 30 35 32 31 36 36 35 28 26 19 15 12 11 11 12 8 12 13 12 12 4 4 11 13 10 3 9 3 4
19 19 20 22 26 30 26 23 25 32 36 36 36 42 50 55 53 39 29 29 30 27 38 30 31 29 31 31 31 35 34 36 25 22 14 17 13 14 14 14 11 10 12 17 11 10 3 16 11 12 11 6 3 4
17 19 20 20 21 24 23 21 31 32 36 23 28 43 49 60 56 43 31 27 29 24 35 29 33 32 30 27 31 34 33 35 27 24 20 14 14 15 16 15 16 10 16 11 13 9 10 16 15 13 7 2 2 3
19 19 16 15 18 19 21 24 30 31 36 26 36 48 51 60 58 34 29 32 32 36 31 33 32 32 31 27 29 31 29 25 24 19 17 15 14 17 18 15 17 13 17 11 13 15 16 15 11 6 4 3 1 4
12 12 12 16 16 17 17 21 35 29 28 31 43 48 53 59 46 35 34 37 35 26 36 34 31 29 28 28 27 26 25 23 22 20 18 15 18 17 19 16 18 16 14 13 10 8 10 10 11 9 5 2 3 6
10 10 13 14 12 15 14 22 24 26 31 33 46 47 49 56 36 32 38 37 29 34 36 32 28 26 25 23 22 24 23 21 20 18 17 17 17 17 18 18 18 15 12 8 6 10 14 9 14 11 5 2 6 8
11 10 11 11 12 9 12 23 24 34 38 40 45 47 49 45 38 41 34 33 29 39 35 33 30 27 25 23 21 19 19 18 17 18 19 19 19 16 16 20 18 17 13 10 6 13 15 11 9 10 7 4 9 11
10 11 9 11 10 13 19 21 23 33 41 47 42 44 41 45 38 29 35 33 33 35 34 25 32 30 27 25 23 20 19 17 17 17 18 18 18 18 13 19 20 19 16 11 10 10 6 11 12 10 8 9 12 11
10 10 13 13 16 19 30 19 29 40 40 51 38 37 39 45 40 37 34 34 32 25 25 26 37 35 28 26 23 19 16 15 15 15 16 16 18 13 13 15 19 20 18 13 14 15 14 9 10 10 9 12 13 10
12 15 17 17 16 18 17 33 36 41 50 43 41 38 34 44 42 32 34 29 27 18 16 29 41 31 33 29 25 20 16 13 10 13 12 14 18 20 13 15 16 18 17 16 19 20 17 13 11 10 11 14 13 10
17 18 20 17 19 19 29 29 37 48 50 48 39 42 40 35 35 28 28 18 17 12 19 32 37 33 31 28 26 14 11 8 6 8 11 7 16 19 15 19 20 17 13 15 10 8 7 6 10 9 11 14 12 10
20 22 20 21 19 26 31 24 40 53 51 49 47 37 33 36 17 15 22 15 13 13 23 33 30 29 30 24 15 8 8 8 5 9 9 6 11 16 17 18 20 18 17 21 18 17 18 15 13 12 12 13 12 10
18 20 21 19 25 33 35 37 39 43 52 40 36 36 24 18 12 13 11 28 17 24 31 35 32 30 27 19 12 8 6 6 5 10 7 9 13 14 17 19 21 19 18 22 21 21 19 15 14 13 13 14 11 9
11 10 18 23 30 41 45 43 39 39 47 41 27 24 12 7 11 23 19 38 29 31 32 33 33 30 29 19 10 7 7 7 8 7 7 9 15 17 20 20 19 21 17 20 20 19 19 17 14 15 17 13 9 8
8 9 16 21 35 45 42 40 42 39 36 26 10 15 17 17 19 21 29 33 29 31 33 35 32 28 24 11 8 8 10 7 9 10 8 12 17 20 21 22 21 19 18 20 20 19 20 18 15 14 17 14 10 8
8 7 13 16 31 35 35 37 42 39 29 18 8 16 22 18 20 28 32 32 32 35 34 31 24 18 15 9 10 8 7 7 7 12 14 13 16 19 22 21 19 17 19 19 22 21 19 17 15 16 16 14 11 9
9 7 7 8 17 25 22 30 40 30 19 16 18 16 23 24 29 30 30 34 36 37 37 30 11 14 11 9 10 10 6 5 9 13 17 17 16 18 19 19 19 18 22 23 24 23 21 19 19 19 18 13 10 8
11 11 8 6 10 13 11 15 25 19 24 19 21 21 22 26 32 33 33 36 38 37 34 21 11 14 10 14 17 15 8 9 10 12 14 19 21 18 16 16 18 20 24 24 23 22 21 20 19 19 19 15 11 8
12 11 12 10 11 12 16 16 22 19 21 21 24 25 26 29 33 34 36 36 37 35 30 22 10 15 13 13 13 14 9 7 6 9 15 16 17 16 16 17 19 22 23 22 22 21 21 19 18 17 16 13 11 9
12 13 12 13 11 12 11 12 16 22 22 22 25 26 30 30 33 31 33 34 34 33 26 18 18 9 15 11 11 12 11 10 7 9 13 14 15 15 15 15 19 23 24 24 24 24 22 22 21 20 18 15 11 10
14 14 14 14 15 14 10 15 17 18 22 23 26 26 26 28 32 33 32 32 31 30 23 21 19 16 9 17 16 10 7 11 17 14 12 10 10 12 14 17 20 21 22 23 25 24 22 18 16 15 15 14 14 12
16 15 16 15 14 11 7 13 18 16 18 24 26 28 25 26 29 30 32 35 37 31 22 16 17 18 9 12 13 11 12 13 14 17 16 14 11 10 11 14 18 20 22 23 23 20 19 18 18 18 17 16 15 13
16 16 15 15 11 7 11 15 18 14 15 20 21 22 28 26 29 30 27 34 37 36 26 22 21 18 14 14 12 10 11 13 11 16 18 15 13 13 13 15 17 19 22 25 25 22 21 18 18 18 17 16 15 14
18 17 16 15 8 6 11 17 20 13 13 19 19 17 22 26 28 31 33 36 37 34 34 30 24 20 18 17 13 9 10 11 11 13 19 18 15 13 14 17 19 22 24 24 25 26 25 22 20 18 17 17 16 15
16 13 8 11 11 9 11 19 21 20 12 16 18 16 21 26 27 29 30 29 35 34 29 29 31 25 18 14 12 11 11 11 12 12 14 16 16 15 15 17 21 24 26 28 29 26 22 21 19 18 18 17 16 15
12 7 12 13 15 13 13 20 21 21 17 13 18 14 23 26 26 21 34 31 23 29 31 26 24 24 21 15 13 12 12 13 14 15 15 15 15 15 13 13 15 19 21 23 24 23 22 20 19 18 17 17 16 15
15 7 14 10 15 16 13 18 23 20 15 13 17 24 9 13 23 26 27 32 29 21 21 23 23 23 22 17 18 17 16 15 15 18 18 18 17 17 18 17 15 16 17 19 20 20 20 20 19 18 18 17 16 16
14 13 5 10 15 17 11 15 25 30 12 12 15 19 5 10 26 33 34 29 27 28 25 23 24 23 18 20 20 18 18 19 18 14 13 14 16 18 20 22 25 26 25 23 22 22 21 19 19 18 17 17 17 18
7 10 9 13 21 18 10 19 21 25 22 14 16 18 17 9 11 17 24 26 29 29 28 27 25 21 19 21 21 20 19 17 15 14 15 15 16 17 18 18 18 18 18 19 20 20 20 19 19 19 18 18 19 19
18 10 4 8 17 20 13 24 29 28 26 23 21 18 18 11 8 15 29 31 28 26 25 20 19 19 20 19 19 19 19 20 21 20 17 15 16 15 16 17 17 17 17 17 18 18 17 17 16 16 17 19 20 20
24 21 20 11 11 23 23 28 31 29 26 20 17 18 16 17 18 17 21 23 27 27 25 25 26 26 24 23 21 21 20 21 22 23 24 23 22 21 20 19 19 18 17 17 16 16 16 17 18 19 20 20 21 21
18 14 13 13 13 22 25 29 29 30 29 21 17 16 13 14 17 21 22 20 20 21 21 23 23 27 26 25 25 25 24 23 21 20 20 20 20 20 19 19 18 17 17 17 18 18 18 19 20 20 20 20 20 21
20 16 15 17 26 27 31 31 30 30 31 28 20 17 18 20 25 26 26 28 26 25 26 24 22 21 22 21 23 24 24 24 25 25 24 23 22 21 20 19 18 18 18 19 19 20 20 19 19 19 19 20 21 22
Wind_Direction
192 195 196 197 197 201 205 216 214 214 211 207 188 179 189 177 171 168 152 171 175 177 183 185 187 186 184 186 180 178 174 177 174 172 169 161 164 165 162 174 186 207 195 188 180 142 211 183 191 203 290 319 185 170
193 192 188 193 196 205 212 216 216 210 199 194 170 186 186 175 172 158 151 165 174 178 183 182 182 176 179 184 186 184 183 183 182 188 178 176 157 174 172 172 189 205 200 193 188 201 213 188 197 221 275 303 164 185
182 183 184 184 194 207 211 215 203 192 200 206 184 185 181 173 182 155 150 155 176 172 172 172 175 179 178 181 189 190 186 190 190 192 198 198 188 193 182 184 190 196 196 195 179 186 167 181 204 237 253 153 144 187
161 175 187 198 205 203 207 189 191 178 182 188 178 182 178 178 187 145 142 163 164 160 158 167 174 182 182 178 188 195 199 198 204 212 218 218 199 198 196 192 192 193 183 188 189 175 171 183 198 203 181 144 167 165
175 190 189 185 198 196 189 187 180 185 184 180 175 180 178 184 175 134 151 162 156 152 160 162 174 180 182 189 194 196 201 205 208 218 224 204 198 193 201 188 195 199 199 200 219 215 183 194 197 175 160 138 150 143
183 188 182 186 206 195 164 155 174 173 184 177 177 179 182 185 176 154 156 159 154 153 153 152 165 167 180 188 191 195 199 201 208 207 195 190 199 199 192 193 202 200 200 197 214 187 181 181 172 164 156 152 153 150
184 188 187 181 204 175 166 158 170 167 177 175 177 179 182 178 158 152 160 157 154 161 160 156 151 159 168 171 168 166 172 177 186 192 191 195 198 204 212 207 199 199 203 202 198 190 179 167 173 162 164 163 163 160
183 190 192 178 185 191 173 171 188 174 178 173 175 178 178 180 169 142 153 162 162 166 164 158 156 159 166 170 168 168 170 173 178 191 201 205 209 214 223 214 211 208 205 194 160 149 154 174 163 172 166 166 167 161
187 196 190 172 180 184 172 169 170 172 174 166 170 172 179 183 175 149 157 161 168 170 176 168 163 158 169 174 171 165 171 177 182 193 199 200 207 212 212 210 213 213 219 212 180 173 172 170 165 167 169 171 166 161
184 182 172 184 171 154 154 166 162 164 163 156 152 166 173 186 171 158 161 164 170 170 167 174 173 167 170 172 169 161 167 170 179 195 201 207 216 221 212 203 200 199 202 206 202 190 186 181 173 170 170 169 164 161
170 166 178 171 168 161 157 165 162 164 157 165 172 169 170 183 185 161 155 156 167 157 158 171 174 173 173 180 172 160 162 169 188 195 200 213 226 220 204 192 185 188 184 151 146 148 140 154 186 183 179 171 166 161
160 169 172 170 168 164 169 168 159 164 164 168 174 169 166 172 187 181 174 158 155 149 155 166 168 177 172 173 164 153 154 173 185 191 194 233 215 207 200 188 180 181 174 165 172 181 171 163 170 179 174 170 167 164
140 159 171 163 154 159 177 165 154 162 163 158 160 160 162 159 170 165 151 179 161 167 166 167 167 172 172 166 162 158 166 191 187 185 217 217 193 193 191 177 171 170 173 177 182 178 181 174 174 175 174 169 169 166
134 142 161 138 146 162 160 159 161 162 169 158 155 163 167 157 155 176 170 182 177 170 168 173 174 170 174 165 155 166 185 188 194 217 219 197 186 180 179 176 179 178 175 182 183 181 178 185 189 178 166 171 168 163
150 125 155 131 154 156 159 166 159 161 164 159 128 163 163 170 165 169 176 172 170 168 172 169 175 170 166 163 165 167 175 202 211 214 201 193 179 177 174 174 175 181 181 181 180 182 182 192 188 183 178 172 169 165
161 141 156 128 150 158 159 169 161 167 161 166 150 139 155 153 160 164 170 168 168 168 169 167 159 161 166 165 177 179 189 207 205 183 182 170 168 169 171 167 167 172 178 178 178 182 190 192 183 177 179 177 173 170
151 130 172 135 139 155 130 162 163 161 162 166 170 162 159 160 159 162 160 165 166 169 168 166 155 173 167 186 181 188 206 194 176 184 185 172 165 166 160 162 172 178 179 178 183 187 190 187 185 181 181 183 184 182
147 143 145 125 142 127 109 137 145 151 164 167 160 163 162 162 161 161 164 167 168 174 173 173 168 165 165 176 188 185 155 148 160 144 157 171 178 174 168 173 180 183 181 181 185 192 190 187 185 183 184 186 192 194
151 142 145 126 148 137 132 143 159 158 157 159 159 160 167 169 165 168 170 172 174 177 181 184 187 192 177 179 183 184 171 137 119 152 155 158 162 167 175 177 180 184 185 186 190 187 184 182 182 187 190 192 194 202
147 144 135 120 139 140 139 164 158 161 166 165 167 164 170 174 173 171 174 175 177 183 192 201 205 180 189 191 169 171 194 216 197 157 159 162 164 168 175 180 181 184 185 185 184 182 183 186 187 186 189 195 201 208
160 153 146 138 143 164 168 170 174 166 161 167 171 171 173 180 181 180 179 178 179 188 200 204 204 203 204 205 206 223 215 194 197 189 172 163 170 177 181 180 184 187 188 188 184 183 183 184 190 194 197 200 208 215
164 155 156 155 149 155 175 178 188 168 164 165 174 176 171 177 182 185 183 187 191 194 199 205 211 197 186 192 194 195 198 194 196 197 194 192 175 181 192 195 195 189 187 186 186 185 187 192 192 195 200 207 214 220
173 163 162 158 159 171 166 178 176 166 179 183 175 174 181 183 189 186 188 196 201 200 200 203 198 194 199 182 177 184 197 202 198 195 198 197 194 189 191 196 193 192 190 185 184 188 194 202 205 207 211 213 218 227
178 168 168 174 170 174 166 174 178 151 156 187 190 182 183 187 189 196 202 203 203 203 206 211 213 210 207 216 224 217 203 203 203 197 193 196 199 203 202 194 191 189 185 190 194 198 203 207 211 215 219 219 223 230
168 180 185 191 191 161 161 169 180 188 179 177 188 190 186 194 198 204 209 211 213 210 212 217 223 223 220 227 223 215 208 208 201 196 200 204 205 204 207 207 198 195 197 196 200 205 209 214 217 222 222 226 231 233
173 182 190 198 197 170 144 166 180 192 197 194 194 182 193 197 203 219 217 212 209 214 219 224 227 225 229 233 209 189 194 205 207 209 208 204 206 208 207 211 209 206 205 202 204 206 209 215 221 222 227 231 233 239
185 177 194 198 187 182 153 165 183 180 191 191 202 204 169 195 207 217 218 216 212 210 208 211 215 225 232 235 223 217 211 202 200 202 206 203 199 196 186 180 186 194 200 206 209 210 213 215 219 224 227 229 237 246
196 213 212 214 202 193 182 174 183 199 201 186 206 210 205 198 216 220 223 220 215 216 217 218 222 224 226 217 213 213 215 219 219 217 216 212 208 205 205 200 195 193 191 194 202 208 214 220 221 222 226 233 242 251
173 204 191 204 209 209 216 184 182 196 206 192 200 207 219 234 220 224 214 195 191 200 211 221 233 235 230 221 217 217 216 211 209 214 220 221 217 213 214 213 210 209 209 209 208 209 210 215 221 228 235 243 250 258
204 223 281 229 226 218 208 197 199 201 205 211 222 219 212 216 235 191 180 181 182 195 199 201 208 207 207 204 203 202 201 198 194 188 180 188 192 194 200 206 210 210 207 208 212 215 221 227 233 241 248 252 258 263
233 256 285 253 234 229 224 204 202 198 195 199 208 207 191 190 196 201 195 192 189 191 192 202 202 203 205 207 205 204 206 206 203 199 198 194 192 196 202 207 213 217 220 222 224 227 233 241 245 248 253 259 265 270
284 260 245 261 200 188 194 193 199 200 201 200 196 195 193 189 193 191 195 200 200 183 202 203 206 207 208 203 201 199 196 196 202 206 208 208 207 208 214 220 223 226 229 233 237 239 241 245 250 256 261 266 271 275
254 242 228 188 167 168 190 194 194 194 199 203 210 203 195 201 206 204 204 198 199 203 197 204 215 207 202 206 201 204 203 200 197 199 203 206 209 212 217 222 229 232 233 236 240 244 248 252 257 261 266 271 275 278
Height
2880 2884 2889 2895 2901 2906 2910 2913 2917 2920 2925 2932 2939 2950 2959 2969 2981 2985 2998 3006 3011 3016 3023 3029 3036 3042 3048 3054 3059 3066 3073 3077 3082 3085 3089 3092 3097 3101 3104 3108 3110 3113 3115 3117 3119 3122 3126 3126 3128 3131 3133 3131 3132 3133
2880 2884 2889 2893 2897 2902 2907 2910 2914 2919 2925 2933 2939 2948 2958 2970 2979 2986 2997 3005 3012 3017 3022 3029 3036 3042 3048 3054 3061 3065 3071 3075 3079 3083 3087 3090 3094 3099 3102 3106 3109 3113 3114 3116 3119 3122 3122 3124 3127 3130 3130 3130 3131 3133
2880 2884 2888 2891 2895 2899 2904 2906 2912 2918 2924 2930 2937 2948 2960 2969 2975 2989 2996 3004 3011 3017 3024 3030 3035 3042 3048 3054 3060 3065 3068 3074 3078 3082 3086 3089 3093 3097 3100 3102 3106 3109 3111 3114 3118 3121 3122 3125 3127 3128 3128 3130 3131 3132
2882 2885 2888 2891 2893 2898 2902 2906 2911 2917 2924 2930 2938 2949 2960 2966 2969 2982 2994 3003 3011 3015 3021 3029 3035 3041 3047 3053 3059 3065 3071 3075 3079 3083 3086 3088 3092 3096 3097 3100 3104 3107 3110 3113 3116 3119 3122 3124 3126 3127 3128 3129 3130 3131
2884 2885 2889 2892 2895 2896 2900 2904 2910 2917 2923 2931 2939 2949 2958 2963 2969 2981 2993 3003 3010 3018 3023 3028 3034 3041 3047 3053 3058 3063 3068 3073 3077 3080 3083 3087 3091 3095 3096 3100 3102 3105 3108 3112 3115 3117 3120 3123 3124 3126 3127 3129 3130 3131
2884 2886 2888 2891 2894 2896 2899 2904 2910 2916 2924 2932 2942 2951 2959 2964 2969 2983 2994 3003 3009 3015 3022 3027 3034 3040 3046 3052 3057 3061 3066 3070 3074 3077 3082 3085 3089 3093 3095 3097 3100 3104 3108 3111 3113 3116 3119 3121 3122 3125 3127 3128 3129 3130
2885 2886 2889 2892 2894 2894 2898 2904 2910 2918 2925 2934 2944 2953 2959 2964 2974 2986 2994 3002 3009 3014 3020 3028 3034 3040 3045 3051 3056 3061 3065 3068 3073 3077 3080 3085 3089 3091 3092 3094 3099 3102 3106 3109 3112 3114 3116 3120 3121 3124 3126 3127 3128 3130
2885 2887 2889 2892 2894 2897 2901 2907 2912 2920 2928 2937 2947 2956 2963 2969 2976 2983 2995 3003 3009 3014 3021 3026 3032 3040 3045 3049 3054 3060 3064 3069 3072 3075 3080 3084 3087 3088 3090 3092 3096 3099 3103 3107 3110 3114 3116 3118 3120 3123 3125 3127 3128 3130
2886 2888 2890 2894 2897 2898 2903 2907 2913 2921 2930 2940 2951 2960 2965 2972 2976 2984 2995 3003 3009 3016 3018 3022 3027 3036 3044 3049 3054 3060 3064 3068 3072 3074 3078 3082 3083 3084 3086 3089 3092 3097 3101 3104 3109 3112 3115 3118 3120 3122 3123 3125 3127 3129
2888 2890 2893 2897 2898 2899 2903 2910 2916 2923 2931 2943 2955 2961 2967 2972 2978 2990 2998 3004 3009 3013 3017 3021 3028 3032 3041 3046 3052 3060 3064 3068 3071 3075 3077 3078 3079 3079 3084 3087 3092 3095 3099 3102 3105 3108 3112 3115 3118 3120 3122 3124 3126 3129
2891 2891 2893 2894 2898 2903 2909 2914 2920 2927 2935 2943 2946 2958 2967 2971 2978 2981 2992 3000 3006 3012 3016 3022 3030 3033 3042 3048 3052 3059 3063 3067 3070 3073 3075 3075 3074 3076 3082 3084 3089 3094 3098 3102 3107 3110 3113 3114 3116 3119 3121 3123 3126 3128
2889 2892 2895 2898 2902 2907 2913 2919 2923 2929 2937 2947 2953 2963 2970 2978 2979 2981 2990 2997 3003 3010 3015 3023 3030 3037 3042 3049 3055 3060 3062 3066 3068 3070 3073 3070 3071 3073 3078 3082 3087 3091 3095 3099 3105 3108 3111 3113 3116 3118 3121 3124 3126 3128
2892 2895 2899 2904 2906 2910 2914 2921 2926 2933 2944 2952 2959 2966 2970 2976 2980 2984 2987 2996 3000 3005 3012 3019 3027 3036 3043 3048 3053 3059 3063 3066 3067 3068 3067 3066 3068 3071 3075 3080 3085 3090 3093 3098 3102 3106 3110 3113 3115 3118 3121 3123 3126 3128
2897 2899 2902 2905 2907 2912 2917 2924 2930 2937 2945 2953 2959 2967 2971 2976 2978 2982 2986 2993 3000 3008 3014 3021 3027 3034 3041 3049 3054 3059 3062 3064 3064 3063 3062 3063 3066 3069 3074 3079 3084 3088 3092 3097 3101 3105 3109 3112 3114 3117 3120 3124 3126 3128
2901 2903 2906 2908 2912 2917 2922 2928 2935 2943 2948 2954 2960 2967 2970 2973 2977 2982 2988 2997 3004 3011 3017 3022 3030 3038 3044 3050 3053 3056 3058 3059 3058 3058 3060 3061 3064 3068 3072 3077 3082 3087 3091 3095 3100 3104 3108 3111 3114 3117 3120 3123 3125 3127
2908 2910 2912 2914 2918 2923 2928 2932 2939 2947 2954 2958 2962 2966 2971 2976 2980 2984 2990 2998 3006 3011 3019 3026 3032 3039 3043 3046 3049 3051 3053 3053 3054 3056 3058 3060 3064 3068 3072 3076 3081 3085 3090 3094 3099 3103 3106 3110 3114 3117 3120 3123 3125 3126
2912 2914 2916 2919 2923 2927 2932 2938 2944 2951 2958 2961 2965 2970 2973 2977 2983 2989 2996 3001 3007 3014 3020 3026 3030 3035 3039 3043 3046 3048 3050 3051 3052 3054 3057 3062 3066 3068 3071 3076 3080 3084 3088 3092 3097 3101 3105 3109 3112 3116 3119 3122 3124 3125
2917 2920 2921 2924 2927 2932 2935 2939 2947 2953 2958 2962 2967 2972 2976 2979 2984 2989 2995 3002 3009 3015 3022 3026 3029 3033 3036 3040 3045 3049 3050 3051 3052 3054 3057 3061 3064 3068 3072 3075 3079 3082 3086 3091 3095 3100 3104 3108 3111 3115 3117 3120 3123 3124
2922 2924 2927 2930 2935 2939 2942 2947 2950 2955 2960 2964 2969 2973 2977 2981 2986 2992 2997 3003 3010 3017 3022 3026 3030 3034 3039 3043 3046 3049 3052 3053 3055 3056 3058 3061 3064 3068 3071 3074 3077 3081 3085 3090 3094 3099 3103 3107 3111 3114 3117 3119 3122 3123
2923 2927 2930 2933 2938 2940 2944 2950 2954 2959 2962 2967 2971 2975 2979 2983 2988 2994 3000 3005 3011 3017 3022 3026 3030 3035 3040 3043 3045 3047 3051 3054 3057 3059 3060 3062 3065 3068 3071 3074 3077 3080 3084 3088 3092 3097 3101 3105 3108 3111 3114 3117 3120 3122
2928 2932 2935 2939 2943 2947 2949 2952 2956 2960 2965 2968 2972 2976 2981 2986 2991 2997 3002 3007 3013 3017 3022 3025 3030 3036 3039 3041 3044 3047 3051 3053 3055 3059 3061 3064 3066 3068 3071 3073 3075 3079 3083 3087 3091 3095 3099 3104 3107 3110 3113 3115 3117 3119
2931 2935 2939 2942 2945 2947 2952 2954 2957 2960 2967 2970 2974 2978 2983 2988 2992 2998 3003 3007 3010 3016 3021 3026 3031 3035 3038 3040 3043 3047 3050 3052 3053 3057 3060 3063 3065 3067 3070 3072 3075 3078 3082 3087 3091 3096 3099 3102 3105 3107 3110 3112 3114 3116
2933 2939 2941 2944 2948 2951 2954 2955 2960 2964 2968 2971 2976 2980 2983 2988 2992 2998 3001 3004 3008 3014 3020 3025 3029 3033 3037 3040 3043 3046 3048 3050 3052 3054 3058 3061 3063 3066 3068 3071 3074 3077 3081 3085 3089 3093 3097 3099 3102 3105 3107 3109 3111 3113
2937 2939 2943 2947 2950 2951 2952 2955 2960 2965 2968 2972 2975 2980 2985 2989 2993 2997 2999 3002 3007 3012 3018 3023 3028 3032 3037 3040 3043 3045 3047 3048 3050 3053 3055 3058 3061 3064 3066 3069 3072 3075 3079 3084 3087 3090 3093 3096 3098 3101 3104 3106 3108 3109
2941 2945 2948 2948 2949 2952 2953 2955 2959 2965 2968 2972 2976 2980 2984 2988 2992 2994 2998 3002 3007 3013 3018 3022 3027 3031 3036 3039 3041 3043 3045 3046 3049 3051 3053 3056 3059 3061 3064 3066 3069 3073 3076 3078 3082 3086 3090 3093 3096 3098 3100 3102 3104 3106
2941 2943 2946 2946 2948 2951 2952 2954 2960 2965 2969 2973 2977 2980 2982 2987 2991 2993 2996 3001 3006 3011 3017 3022 3026 3031 3034 3037 3039 3040 3042 3044 3046 3049 3051 3054 3056 3059 3062 3065 3068 3071 3074 3077 3080 3084 3088 3090 3093 3095 3097 3098 3100 3101
2943 2944 2946 2946 2946 2948 2952 2954 2959 2965 2969 2973 2975 2979 2982 2985 2987 2989 2992 2998 3004 3010 3014 3018 3022 3027 3030 3032 3034 3037 3039 3041 3042 3044 3047 3050 3053 3056 3059 3063 3066 3070 3073 3076 3079 3082 3084 3087 3089 3091 3093 3094 3096 3097
2938 2939 2939 2942 2944 2948 2951 2954 2959 2964 2967 2971 2974 2977 2980 2980 2982 2983 2988 2994 3001 3007 3011 3015 3018 3022 3025 3028 3030 3033 3036 3038 3041 3044 3047 3049 3051 3054 3056 3058 3060 3063 3067 3071 3074 3077 3080 3083 3085 3087 3089 3090 3092 3092
2936 2937 2939 2941 2944 2946 2948 2950 2954 2961 2967 2970 2973 2976 2979 2980 2981 2982 2986 2991 2996 3003 3008 3012 3015 3018 3022 3025 3027 3030 3033 3036 3040 3043 3045 3047 3050 3052 3055 3057 3060 3063 3066 3069 3071 3073 3076 3079 3081 3082 3084 3085 3086 3086
2934 2935 2937 2938 2940 2943 2947 2950 2954 2960 2965 2969 2972 2975 2978 2980 2980 2982 2986 2990 2993 2999 3003 3007 3012 3015 3019 3022 3025 3027 3029 3032 3034 3037 3040 3043 3046 3050 3052 3055 3058 3060 3063 3066 3068 3070 3072 3075 3077 3078 3079 3079 3079 3080
2930 2932 2933 2934 2937 2939 2942 2948 2953 2959 2963 2967 2970 2973 2976 2978 2981 2983 2986 2988 2991 2996 3000 3004 3008 3012 3015 3018 3021 3024 3026 3029 3031 3034 3036 3038 3042 3045 3049 3051 3054 3057 3060 3062 3064 3066 3068 3069 3070 3071 3072 3072 3073 3072
2927 2929 2931 2932 2932 2935 2939 2945 2950 2955 2959 2963 2968 2971 2974 2976 2980 2983 2985 2988 2990 2994 2998 3001 3004 3007 3010 3013 3017 3019 3022 3026 3029 3032 3035 3038 3040 3043 3046 3049 3051 3054 3056 3058 3060 3061 3062 3063 3064 3065 3065 3065 3065 3065
2925 2926 2929 2933 2934 2935 2939 2944 2948 2952 2957 2960 2963 2967 2971 2973 2975 2981 2983 2987 2990 2993 2997 2999 3001 3003 3006 3009 3013 3017 3020 3023 3025 3029 3032 3034 3037 3040 3042 3045 3047 3049 3051 3052 3054 3055 3056 3057 3058 3059 3059 3059 3059 3059